Location: Unspecified
(33.9360°N, 83.4200°W)
Time: 12:40:04
(UTC-04:00)

Daily predictions for brighter satellites

Satellite Brightness Start Highest point End
(mag) Time Altitude Azimuth Time Altitude Azimuth Time Altitude Azimuth
ISS -3.6 21:02:55 10° SSW 21:06:01 46° SE 21:09:10 10° ENE
Cosmos 1891 Rocket 4.5 21:01:33 10° N 21:07:40 72° E 21:13:52 10° SSE
Tsikada Rocket 4.1 21:05:40 10° S 21:11:48 62° E 21:17:53 10° NNE
ALOS 4.5 21:09:20 10° SSW 21:13:16 27° W 21:17:12 10° NW
Cosmos 1400 Rocket 4.4 21:11:24 10° SSW 21:15:16 40° W 21:19:06 10° N
YAOGAN 6 4.2 21:13:06 10° ESE 21:15:52 20° ENE 21:18:38 10° NNE
USA 186 1.2 21:18:55 10° SSE 21:21:26 87° E 21:24:11 10° N
Tiangong 2 3.1 21:19:18 10° NW 21:21:56 23° NNE 21:24:34 10° ENE
Hubble Space Telescope 2.4 21:19:21 10° WSW 21:22:38 23° SSW 21:25:52 10° SE
Meteor 2-3 Rocket 3.9 21:19:40 10° S 21:25:12 53° E 21:30:43 10° NNE
Meteor 2-10 Rocket 3.8 21:20:19 10° N 21:26:10 82° E 21:31:56 10° S
Cosmos 2034 Rocket 4.0 21:20:14 10° N 21:26:27 89° E 21:32:36 10° S
GPS 2-04 Rocket1 2.7 21:22:59 10° W 21:26:45 72° N 21:30:20 10° ENE
COSMOS 2487 2.7 21:25:53 10° NNW 21:29:24 69° WSW 21:32:54 10° S
OAO 2 Rocket 3.4 21:24:53 10° W 21:29:56 69° SSW 21:34:09 14° ESE
Meteor 1-26 Rocket 4.4 21:24:46 10° N 21:30:18 54° E 21:35:55 10° SSE
Helios 1B rocket 2.6 21:29:52 10° NNE 21:33:51 48° E 21:37:49 10° S
H-2A R/B 4.2 21:33:44 10° E 21:35:12 11° ENE 21:36:40 10° NE
Cosmos 2082 Rocket 3.1 21:31:25 10° NNW 21:36:51 48° WSW 21:42:15 10° S
Cosmos 1937 Rocket 3.9 21:32:29 10° SSW 21:37:35 67° WNW 21:42:42 10° N
Cosmos 2344 4.3 21:32:29 10° SSE 21:38:59 30° ESE 21:45:32 10° NE
CZ-4B DEB 3.8 21:37:46 19° ESE 21:39:00 25° ENE 21:41:29 10° NNE
SL-19 R/B 4.4 21:35:12 10° SSE 21:40:49 70° ENE 21:46:48 10° N
Cosmos 2242 Rocket 4.5 21:37:41 10° NNW 21:42:00 50° W 21:46:15 10° SSW
Cosmos 1408 4.1 21:42:05 18° ESE 21:42:55 19° E 21:45:36 10° NE
CZ-4B DEB 4.5 21:42:47 11° SSE 21:46:11 90° W 21:49:45 10° NNW
Cosmos 1825 3.6 21:45:47 19° ESE 21:46:31 20° E 21:49:21 10° NE
Cosmos 1833 Rocket 3.9 21:42:46 10° NW 21:47:59 39° WSW 21:53:09 10° S
Meteor 1-29 3.0 21:45:23 10° NNE 21:48:49 56° E 21:52:12 10° S
Aurora 2 Rocket 4.3 21:45:01 10° WSW 21:48:51 19° SSW 21:51:00 14° SSE
Resurs 01 Rocket 3.4 21:48:31 10° SSW 21:52:25 31° W 21:56:21 10° NW
Shenzhou-11 Module 3.1 21:50:39 10° NW 21:53:32 37° NNE 21:55:05 21° ENE
Helios 1A 2.9 21:55:52 16° SSE 21:59:07 88° ENE 22:03:20 10° NNW
Molniya-1 3.2 21:57:32 10° SW 21:59:30 49° WNW 22:01:01 11° NNE
Cosmos 1892 3.6 21:57:11 10° SSW 22:00:56 49° W 22:04:40 10° N
COSMOS 2455 3.0 21:58:16 10° SSW 22:04:16 76° WNW 22:10:18 10° NNE
ERS-1 Rocket 3.2 22:03:26 25° SE 22:06:10 51° ENE 22:11:02 10° N
Cosmos 1943 Rocket 2.2 22:04:13 10° S 22:09:38 53° ESE 22:15:03 10° NNE
Cosmos 2279 Rocket 4.4 22:04:43 10° N 22:10:39 43° E 22:13:33 27° SE
Cosmos 2263 4.1 22:07:09 10° SSW 22:12:53 75° ESE 22:18:38 10° NNE
Cosmos 2142 Rocket 4.4 22:09:39 10° N 22:15:48 76° E 22:19:54 22° SSE
NOAA 11 4.2 22:13:36 26° SSE 22:16:39 67° ENE 22:22:06 10° N
Milstar 3 3.6 22:11:23 10° WSW 22:23:11 50° S 22:27:30 26° ESE
USA 215 3.8 22:19:36 23° ESE 22:23:27 49° NE 22:29:43 10° NNW
Cosmos 1340 3.7 22:22:54 10° NNE 22:25:58 30° ENE 22:25:58 30° ENE
Lacrosse 5 rocket 2.7 22:24:01 10° WSW 22:27:17 34° NW 22:30:38 10° NNE
Cosmos 2369 Rocket 2.9 22:21:54 10° SW 22:27:25 56° WNW 22:33:00 10° NNE
Okean 1-7 2.9 22:23:28 10° N 22:27:54 80° E 22:29:17 43° SSE
Delta 168 4.2 22:26:22 10° WSW 22:29:26 27° S 22:29:26 27° S
SPOT 1/Viking Rocket 4.2 22:31:52 34° E 22:32:53 37° ENE 22:37:40 10° N
Cosmos 1346 Rocket 4.4 22:29:43 10° NNW 22:33:16 31° W 22:35:54 15° SSW
SL-08 RB Rocket 4.0 22:35:00 45° ESE 22:35:45 50° ENE 22:40:16 10° N
DNEPR-1 R/B 4.2 22:30:32 10° SW 22:36:03 69° WNW 22:40:42 10° NNE
Cosmos 1703 Rocket 4.3 22:32:06 10° NNW 22:36:23 50° W 22:38:35 25° SSW
Cosmos 1606 2.5 22:33:29 10° N 22:37:15 76° E 22:37:22 75° ESE
Cosmos 468 4.4 22:34:12 10° NNW 22:39:28 78° ENE 22:40:55 48° SSE
ISS -0.6 22:40:33 10° WNW 22:42:41 16° NNW 22:44:49 10° N
Cosmos 372 Rocket 4.0 22:40:36 15° SSW 22:44:54 75° WNW 22:50:01 10° NNE
Cosmos 1733 Rocket 3.4 22:45:52 47° ENE 22:45:52 47° ENE 22:49:31 10° NNE
OAO 3 Copernicus 4.1 22:40:53 10° WSW 22:45:55 78° SSE 22:47:06 52° E
Meteor 1-10 Rocket 4.3 22:42:00 10° N 22:47:57 84° W 22:50:19 39° S
Cosmos 1269 Rocket 4.1 22:42:46 10° N 22:47:59 58° ENE 22:48:45 52° ESE
Meteor 1-27 Rocket 3.8 22:42:36 10° N 22:48:14 55° E 22:49:13 49° ESE
Terra 3.2 22:49:48 24° ENE 22:49:48 24° ENE 22:53:19 10° NNE
Cosmos 1125 Rocket 4.2 22:45:41 10° SSW 22:50:49 54° WNW 22:55:57 10° N
CENTAUR R/B 3.0 22:45:11 10° SW 22:50:57 58° NW 22:57:32 10° NNE
Nimbus 7 Rocket 4.2 22:51:56 10° NNE 22:57:49 79° ESE 22:59:42 45° S
ATLAS 5 CENTAUR R/B 2.8 22:52:02 10° NNW 22:57:59 51° NE 22:59:28 43° E
MetOp-B 4.5 22:56:36 38° SSW 22:58:29 61° W 23:03:46 10° NNW
Tiangong 2 2.8 22:55:54 10° WNW 22:57:47 32° WNW 22:57:47 32° WNW
SPOT 5 3.0 22:58:43 56° S 22:59:54 84° WSW 23:05:16 10° NNW
Meteor 2-6 Rocket 4.5 22:54:41 10° NNW 23:00:36 71° W 23:02:43 41° SSW
Meteor 2-20 4.5 23:03:28 54° ESE 23:04:01 56° E 23:09:59 10° NNE
GPS 2-04 Rocket1 3.8 23:02:58 10° WNW 23:05:16 36° WNW 23:05:16 36° WNW
ARGOS 3.4 23:06:21 45° SSW 23:07:44 60° W 23:13:03 10° NNW
Cosmos 1782 4.1 23:05:53 10° NNW 23:09:30 33° W 23:09:53 32° WSW
Cosmos 2084 4.2 23:06:00 10° NW 23:09:06 42° W 23:09:06 42° W
Cosmos 1656 Rocket 3.4 23:10:03 76° SSE 23:10:20 79° ESE 23:15:51 10° NNE
H-2A R/B 2.0 23:13:15 70° S 23:13:53 82° WSW 23:19:16 10° NNW
Lacrosse 4 Rocket 2.1 23:17:11 10° NNW 23:20:44 53° N 23:20:44 53° N
Cosmos 1674 Rocket 4.4 23:21:52 10° N 23:24:54 44° N 23:24:54 44° N
Cosmos 1092 Rocket 3.8 23:27:20 77° SSE 23:27:48 85° E 23:33:58 10° N
Nadezhda 4 Rocket 4.2 23:27:53 45° SW 23:29:42 64° W 23:35:50 10° N
SL-19 R/B 4.5 23:25:10 10° NNE 23:30:53 65° E 23:30:53 65° E
H-2A R/B 3.8 23:37:08 25° NNE 23:37:08 25° NNE 23:39:08 10° N
Cosmos 2227 Rocket 4.4 23:36:43 10° NNE 23:39:13 13° NE 23:39:30 13° ENE
Cosmos 2219 4.0 23:38:47 10° N 23:43:36 41° NE 23:43:36 41° NE
